Portland Hillsboro, OR

5:18 AM PDT on June 28, 2017 (GMT -0700)
Portland-Hillsboro

Weather History for KHIO - November, 2013

Change the Weather History Date:

Sunday, November 3, 2013

  Actual Average Record
Temperature  
Mean Temperature 44 °F 47 °F  
Max Temperature 52 °F 56 °F 71 °F (1975)
Min Temperature 35 °F 38 °F 13 °F (2035)
Degree Days  
Heating Degree Days 21 18  
Month to date heating degree days 50 53  
Since 1 July heating degree days 654 734  
Cooling Degree Days 0 0  
Month to date cooling degree days 0 0  
Year to date cooling degree days 310 198  
Moisture  
Dew Point 40 °F    
Average Humidity 83    
Maximum Humidity 100    
Minimum Humidity 66    
Precipitation  
Precipitation 0.07 in 0.20 in 1.24 in (1983)
Month to date precipitation 0.74 0.59  
Year to date precipitation 21.50 27.28  
Snow  
Snow 0.00 in - - ()
Month to date snowfall  
Since 1 July snowfall 0.0  
Since 1 September snowfall 0.0  
Snow Depth 0.00 in    
Sea Level Pressure  
Sea Level Pressure 30.12 in    
Wind  
Wind Speed 3 mph (WSW)    
Max Wind Speed 12 mph    
Max Gust Speed 17 mph    
Visibility 10 miles    
Events Rain    
T = Trace of Precipitation, MM = Missing Value Source: NWS Daily Summary

Daily Weather History Graph

Daily Weather History Graph

Search for Another Location

Airport or City:

Trip Planner

Search our weather history database for the weather conditions in past years. The results will help you decide how hot, cold, wet, or windy it might be!

Date:

Astronomy

Nov. 03, 2013 Rise Set
Actual Time 6:54 AM PST 4:55 PM PST
Civil Twilight 6:23 AM PST 5:26 PM PST
Nautical Twilight 5:48 AM PST 6:01 PM PST
Astronomical Twilight 5:13 AM PST 6:36 PM PST
Moon 7:05 AM PST (11/3) 5:12 PM PST (11/3)
Length of Visible Light 11h 03m
Length of Day
10h 00m
New Moon, 0% of the Moon is Illuminated
Nov 3
New Moon
Nov 9
First Quarter
Nov 17
Full
Nov 25
Last Quarter
Dec 2
New

Hourly Weather History & Observations

Time (PST) Temp. Windchill Dew Point Humidity Pressure Visibility Wind Dir Wind Speed Gust Speed Precip Events Conditions
12:53 AM 43.0 °F 39.5 °F 39.0 °F 86% 30.07 in 10.0 mi NW 5.8 mph - 0.00 in   Mostly Cloudy
1:53 AM 41.0 °F 38.0 °F 39.0 °F 93% 30.09 in 10.0 mi North 4.6 mph - 0.02 in   Overcast
1:53 AM 42.1 °F 40.2 °F 39.9 °F 92% 30.09 in 10.0 mi SSW 3.5 mph - 0.01 in Rain Light Rain
2:07 AM 41.0 °F 39.0 °F 39.0 °F 93% 30.09 in 10.0 mi Variable 3.5 mph - 0.01 in Rain Light Rain
2:53 AM 42.1 °F - 39.9 °F 92% 30.09 in 10.0 mi Calm Calm - 0.01 in Rain Light Rain
3:53 AM 41.0 °F 36.4 °F 39.0 °F 93% 30.08 in 10.0 mi WSW 6.9 mph - 0.01 in   Partly Cloudy
4:46 AM 37.0 °F - 36.0 °F 96% 30.08 in 10.0 mi Calm Calm - N/A   Scattered Clouds
4:53 AM 37.9 °F - 36.0 °F 93% 30.09 in 9.0 mi Calm Calm - N/A   Scattered Clouds
5:53 AM 39.0 °F - 37.9 °F 96% 30.11 in 9.0 mi Calm Calm - N/A   Scattered Clouds
6:53 AM 37.0 °F - 36.0 °F 96% 30.13 in 10.0 mi Calm Calm - N/A   Overcast
7:53 AM 39.0 °F - 37.9 °F 96% 30.14 in 10.0 mi Calm Calm - 0.01 in Rain Light Rain
8:53 AM 42.1 °F 39.2 °F 39.0 °F 89% 30.15 in 10.0 mi SSE 4.6 mph - 0.00 in   Scattered Clouds
9:53 AM 45.0 °F - 39.9 °F 82% 30.16 in 10.0 mi Calm Calm - N/A   Mostly Cloudy
10:06 AM 45.0 °F 43.5 °F 39.9 °F 82% 30.15 in 10.0 mi Variable 3.5 mph - N/A   Mostly Cloudy
10:53 AM 46.9 °F - 41.0 °F 80% 30.16 in 10.0 mi Variable 3.5 mph - N/A   Mostly Cloudy
11:53 AM 48.9 °F - 41.0 °F 74% 30.15 in 10.0 mi SSW 8.1 mph - N/A   Mostly Cloudy
12:53 PM 50.0 °F - 41.0 °F 71% 30.13 in 10.0 mi WSW 9.2 mph - N/A   Overcast
1:53 PM 51.1 °F - 41.0 °F 68% 30.12 in 10.0 mi SW 11.5 mph - N/A   Overcast
2:53 PM 50.0 °F - 39.9 °F 68% 30.13 in 10.0 mi West 6.9 mph - 0.00 in   Overcast
3:53 PM 48.9 °F - 43.0 °F 80% 30.13 in 10.0 mi Calm Calm - 0.00 in   Overcast
4:53 PM 48.0 °F - 39.9 °F 74% 30.12 in 10.0 mi SW 5.8 mph - N/A   Overcast
5:53 PM 48.0 °F - 39.9 °F 74% 30.12 in 10.0 mi WSW 5.8 mph - N/A   Mostly Cloudy
6:53 PM 45.0 °F - 39.9 °F 82% 30.14 in 10.0 mi Calm Calm - N/A   Overcast
7:53 PM 46.9 °F - 39.9 °F 77% 30.14 in 10.0 mi Calm Calm - N/A   Overcast
8:53 PM 45.0 °F 43.5 °F 39.9 °F 82% 30.14 in 10.0 mi South 3.5 mph - 0.00 in   Overcast
9:53 PM 44.1 °F - 41.0 °F 89% 30.15 in 10.0 mi Calm Calm - 0.00 in   Overcast
10:53 PM 43.0 °F 41.3 °F 42.1 °F 97% 30.15 in 9.0 mi NNW 3.5 mph - N/A   Overcast